Hutchinson, KS

1:39 PM CDT on September 18, 2019 (GMT -0500)
Hutchinson Municipal

Weather History for KHUT - July, 2019

Change the Weather History Date:

Thursday, July 11, 2019

  Actual Average Record
Temperature  
Mean Temperature 76 °F -  
Max Temperature 88 °F 90 °F 106 °F (2001)
Min Temperature 64 °F 65 °F 57 °F (1999)
Cooling Degree Days 10    
Growing Degree Days 26 (Base 50)    
Moisture  
Dew Point 61 °F    
Average Humidity 60    
Maximum Humidity 81    
Minimum Humidity 38    
Precipitation  
Precipitation 0.00 in - - ()
Sea Level Pressure  
Sea Level Pressure 30.03 in    
Wind  
Wind Speed 5 mph (NE)    
Max Wind Speed 12 mph    
Max Gust Speed 18 mph    
Visibility 10 miles    
Events      
Averages and records for this station are not official NWS values.
T = Trace of Precipitation, MM = Missing Value Source: NWS Daily Summary

Daily Weather History Graph

Daily Weather History Graph

Search for Another Location

Airport or City:

Astronomy

Jul. 11, 2019 Rise Set
Actual Time 6:17 AM CDT 8:55 PM CDT
Civil Twilight 5:46 AM CDT 9:26 PM CDT
Nautical Twilight 5:08 AM CDT 10:04 PM CDT
Astronomical Twilight 4:25 AM CDT 10:47 PM CDT
Moon 4:12 PM CDT (7/11) 2:25 AM CDT (7/11)
Length of Visible Light 15h 39m
Length of Day
14h 37m
Waxing Gibbous, 74% of the Moon is Illuminated
Jul 11
Waxing Gibbous
Jul 16
Full
Jul 24
Last Quarter
Jul 31
New
Aug 7
First Quarter

Hourly Weather History & Observations

Time (CDT) Temp. Heat Index Dew Point Humidity Pressure Visibility Wind Dir Wind Speed Gust Speed Precip Events Conditions
12:52 AM 69.1 °F - 61.0 °F 75% 30.09 in 10.0 mi North 5.8 mph - N/A   Clear
3:52 AM 64.9 °F - 59.0 °F 81% 30.07 in 10.0 mi North 3.5 mph - N/A   Clear
4:52 AM 66.9 °F - 59.0 °F 76% 30.07 in 10.0 mi North 5.8 mph - N/A   Clear
5:52 AM 64.9 °F - 59.0 °F 81% 30.09 in 10.0 mi North 4.6 mph - N/A   Clear
7:52 AM 68.0 °F - 62.1 °F 81% 30.11 in 10.0 mi NW 3.5 mph - N/A   Clear
8:52 AM 73.9 °F - 64.0 °F 71% 30.11 in 10.0 mi Calm Calm - N/A   Clear
9:52 AM 80.1 °F 81.5 °F 63.0 °F 56% 30.11 in 10.0 mi Variable 3.5 mph - N/A   Clear
10:52 AM 81.0 °F 81.9 °F 62.1 °F 52% 30.09 in 10.0 mi Variable 4.6 mph - N/A   Clear
11:52 AM 82.9 °F 83.3 °F 61.0 °F 47% 30.08 in 10.0 mi North 6.9 mph - N/A   Clear
12:52 PM 84.0 °F 84.4 °F 61.0 °F 46% 30.06 in 10.0 mi NE 4.6 mph - N/A   Clear
1:52 PM 87.1 °F 86.7 °F 60.1 °F 40% 30.04 in 10.0 mi NE 11.5 mph - N/A   Clear
2:52 PM 87.1 °F 86.7 °F 60.1 °F 40% 30.02 in 10.0 mi ENE 11.5 mph 18.4 mph N/A   Clear
3:52 PM 87.1 °F 86.5 °F 59.0 °F 39% 30.01 in 10.0 mi Variable 3.5 mph - N/A   Clear
4:52 PM 86.0 °F 85.7 °F 60.1 °F 41% 29.99 in 10.0 mi East 5.8 mph - N/A   Clear
5:52 PM 86.0 °F 85.0 °F 57.9 °F 38% 29.97 in 10.0 mi East 8.1 mph - N/A   Clear
6:52 PM 84.9 °F 85.0 °F 61.0 °F 44% 29.96 in 10.0 mi East 5.8 mph - N/A   Clear
7:52 PM 82.0 °F 83.1 °F 63.0 °F 52% 29.96 in 10.0 mi ESE 4.6 mph - N/A   Clear
8:52 PM 75.9 °F - 64.0 °F 67% 29.95 in 10.0 mi East 3.5 mph - N/A   Clear
9:52 PM 70.0 °F - 61.0 °F 73% 29.95 in 10.0 mi ENE 3.5 mph - N/A   Clear
10:52 PM 69.1 °F - 61.0 °F 75% 29.96 in 10.0 mi East 6.9 mph - N/A   Clear
11:52 PM 68.0 °F - 60.1 °F 76% 29.96 in 10.0 mi Calm Calm - N/A   Clear